Hutchinson, MN

2:00 PM CDT on March 26, 2017 (GMT -0500)
Hutchinson Municipal-Butler

Weather History for KHCD - January, 2013

Change the Weather History Date:

Tuesday, January 8, 2013

  Actual Average Record
Temperature  
Mean Temperature 20 °F -  
Max Temperature 31 °F 18 °F 53 °F (2003)
Min Temperature 10 °F -2 °F -22 °F (1966)
Degree Days  
Heating Degree Days 44    
Moisture  
Dew Point 22 °F    
Average Humidity 93    
Maximum Humidity 100    
Minimum Humidity 87    
Precipitation  
Precipitation 0.00 in - - ()
Sea Level Pressure  
Sea Level Pressure 29.84 in    
Wind  
Wind Speed 5 mph (SSE)    
Max Wind Speed 16 mph    
Max Gust Speed 22 mph    
Visibility 10 miles    
Events      
Averages and records for this station are not official NWS values.
T = Trace of Precipitation, MM = Missing Value Source: NWS Daily Summary

Daily Weather History Graph

Daily Weather History Graph

Search for Another Location

Airport or City:

Trip Planner

Search our weather history database for the weather conditions in past years. The results will help you decide how hot, cold, wet, or windy it might be!

Date:

Astronomy

Jan. 08, 2013 Rise Set
Actual Time 7:54 AM CST 4:54 PM CST
Civil Twilight 7:21 AM CST 5:27 PM CST
Nautical Twilight 6:44 AM CST 6:04 PM CST
Astronomical Twilight 6:09 AM CST 6:39 PM CST
Moon 4:27 AM CST (1/8) 1:57 PM CST (1/8)
Length of Visible Light 10h 06m
Length of Day
9h 00m
Waning Crescent, 13% of the Moon is Illuminated
Jan 8
Waning Crescent
Jan 11
New
Jan 18
First Quarter
Jan 26
Full
Feb 3
Last Quarter

Hourly Weather History & Observations

Time (CST) Temp. Windchill Dew Point Humidity Pressure Visibility Wind Dir Wind Speed Gust Speed Precip Events Conditions
12:09 AM 21.4 °F - 19.8 °F 93% 29.96 in 10.0 mi Calm Calm - N/A   Clear
12:28 AM 20.7 °F - 19.0 °F 93% 29.95 in 10.0 mi Calm Calm - N/A   Clear
12:46 AM 20.7 °F - 19.6 °F 96% 29.95 in 10.0 mi Calm Calm - N/A   Clear
1:09 AM 14.9 °F - 13.5 °F 94% 29.95 in 10.0 mi Calm Calm - N/A   Clear
1:28 AM 18.3 °F 13.1 °F 17.6 °F 97% 29.95 in 10.0 mi NNW 3.5 mph - N/A   Clear
1:48 AM 16.3 °F - 15.4 °F 96% 29.94 in 10.0 mi Calm Calm - N/A   Clear
1:55 AM 14.0 °F - 13.1 °F 96% 29.94 in 10.0 mi Calm Calm - N/A   Clear
2:30 AM 14.0 °F - 14.0 °F 100% 29.94 in 10.0 mi Calm Calm - N/A   Clear
2:50 AM 12.2 °F - 12.2 °F 100% 29.93 in 10.0 mi Calm Calm - N/A   Clear
3:10 AM 10.4 °F - 8.6 °F 92% 29.93 in 10.0 mi Calm Calm - N/A   Clear
3:30 AM 12.2 °F - 10.4 °F 92% 29.93 in 10.0 mi Calm Calm - N/A   Clear
3:50 AM 12.2 °F 6.1 °F 10.4 °F 92% 29.92 in 10.0 mi ESE 3.5 mph - N/A   Clear
4:10 AM 14.0 °F 8.2 °F 12.2 °F 93% 29.92 in 10.0 mi SE 3.5 mph - N/A   Clear
4:30 AM 14.0 °F 6.5 °F 12.2 °F 93% 29.91 in 10.0 mi SE 4.6 mph - N/A   Clear
4:50 AM 14.0 °F 8.2 °F 12.2 °F 93% 29.90 in 10.0 mi ESE 3.5 mph - N/A   Clear
5:10 AM 14.0 °F 8.2 °F 12.2 °F 93% 29.90 in 10.0 mi ESE 3.5 mph - N/A   Clear
5:30 AM 14.0 °F 8.2 °F 12.2 °F 93% 29.90 in 10.0 mi SE 3.5 mph - N/A   Clear
5:37 AM 14.0 °F 8.2 °F 13.1 °F 96% 29.90 in 10.0 mi ESE 3.5 mph - N/A   Clear
5:48 AM 14.5 °F 8.8 °F 13.5 °F 95% 29.90 in 10.0 mi ESE 3.5 mph - N/A   Clear
6:08 AM 16.7 °F 9.6 °F 15.8 °F 96% 29.90 in 10.0 mi ESE 4.6 mph - N/A   Clear
6:28 AM 16.7 °F 8.3 °F 15.8 °F 96% 29.89 in 10.0 mi ESE 5.8 mph - N/A   Clear
6:49 AM 18.5 °F 11.7 °F 17.6 °F 96% 29.90 in 10.0 mi SE 4.6 mph - N/A   Clear
7:09 AM 19.2 °F 12.5 °F 18.5 °F 97% 29.90 in 10.0 mi SE 4.6 mph - N/A   Clear
7:28 AM 19.2 °F 11.3 °F 18.5 °F 97% 29.91 in 10.0 mi SE 5.8 mph - N/A   Clear
7:48 AM 19.2 °F 12.5 °F 18.5 °F 97% 29.90 in 10.0 mi East 4.6 mph - N/A   Clear
8:08 AM 19.2 °F 12.5 °F 18.5 °F 97% 29.89 in 10.0 mi East 4.6 mph - N/A   Clear
8:28 AM 19.2 °F 12.5 °F 18.5 °F 97% 29.89 in 10.0 mi ESE 4.6 mph - N/A   Clear
8:49 AM 19.4 °F 11.5 °F 18.9 °F 98% 29.88 in 10.0 mi ESE 5.8 mph - N/A   Clear
9:08 AM 19.2 °F 10.2 °F 18.5 °F 97% 29.88 in 10.0 mi ESE 6.9 mph - N/A   Clear
9:29 AM 21.7 °F 13.2 °F 21.2 °F 98% 29.87 in 10.0 mi ESE 6.9 mph - N/A   Clear
9:48 AM 21.9 °F 13.4 °F 21.2 °F 97% 29.85 in 10.0 mi ESE 6.9 mph - N/A   Clear
10:09 AM 22.6 °F 15.3 °F 21.9 °F 97% 29.86 in 10.0 mi SE 5.8 mph - N/A   Clear
10:28 AM 24.1 °F 16.0 °F 23.2 °F 96% 29.86 in 10.0 mi SE 6.9 mph - N/A   Clear
10:48 AM 24.3 °F 17.3 °F 22.8 °F 94% 29.85 in 10.0 mi ESE 5.8 mph - N/A   Clear
11:09 AM 26.2 °F 19.6 °F 24.4 °F 93% 29.84 in 10.0 mi ESE 5.8 mph - N/A   Clear
11:49 AM 29.3 °F 22.3 °F 27.0 °F 91% 29.81 in 10.0 mi SE 6.9 mph - N/A   Scattered Clouds
12:08 PM 29.3 °F 23.2 °F 26.4 °F 89% 29.80 in 10.0 mi SE 5.8 mph - N/A   Mostly Cloudy
12:28 PM 29.3 °F 20.8 °F 26.6 °F 90% 29.78 in 10.0 mi SE 9.2 mph - N/A   Overcast
12:47 PM 29.3 °F 20.2 °F 26.6 °F 90% 29.77 in 10.0 mi SE 10.4 mph - N/A   Overcast
1:09 PM 29.5 °F 21.1 °F 26.4 °F 88% 29.76 in 10.0 mi SE 9.2 mph - N/A   Scattered Clouds
1:49 PM 29.5 °F 18.0 °F 26.6 °F 89% 29.70 in 10.0 mi ESE 16.1 mph - N/A   Scattered Clouds
2:08 PM 30.6 °F 20.7 °F 27.9 °F 90% 29.71 in 10.0 mi SE 12.7 mph - N/A   Scattered Clouds
2:28 PM 31.8 °F 25.4 °F 28.9 °F 89% 29.72 in 10.0 mi SSE 6.9 mph - N/A   Scattered Clouds
2:48 PM 31.8 °F 25.4 °F 28.9 °F 89% 29.73 in 10.0 mi SSE 6.9 mph - N/A   Mostly Cloudy
3:08 PM 31.8 °F 24.6 °F 28.9 °F 89% 29.73 in 10.0 mi SSE 8.1 mph - N/A   Overcast
3:28 PM 31.8 °F 24.6 °F 29.3 °F 90% 29.73 in 10.0 mi South 8.1 mph - N/A   Overcast
3:48 PM 31.8 °F 23.3 °F 29.3 °F 90% 29.73 in 10.0 mi South 10.4 mph - N/A   Overcast
4:08 PM 31.8 °F 22.8 °F 29.5 °F 91% 29.73 in 10.0 mi South 11.5 mph - N/A   Mostly Cloudy
4:29 PM 31.8 °F 23.3 °F 29.8 °F 92% 29.74 in 10.0 mi South 10.4 mph - N/A   Scattered Clouds
4:48 PM 31.3 °F 24.7 °F 29.3 °F 92% 29.74 in 10.0 mi SSW 6.9 mph 16.1 mph N/A   Clear
5:09 PM 30.6 °F 22.4 °F 28.8 °F 93% 29.75 in 10.0 mi SSW 9.2 mph - N/A   Clear
5:28 PM 29.5 °F 21.8 °F 27.7 °F 93% 29.75 in 10.0 mi South 8.1 mph - N/A   Clear
5:48 PM 29.3 °F 23.2 °F 27.5 °F 93% 29.75 in 10.0 mi SSW 5.8 mph - N/A   Clear
6:07 PM 29.3 °F 20.8 °F 28.0 °F 95% 29.75 in 7.0 mi SSW 9.2 mph - N/A   Clear
6:30 PM 28.4 °F 19.1 °F 28.4 °F 100% 29.76 in 7.0 mi SW 10.4 mph - N/A   Clear
6:40 PM 29.3 °F 22.3 °F 27.9 °F 94% 29.77 in 7.0 mi SW 6.9 mph - N/A   Clear
6:48 PM 29.3 °F 20.8 °F 28.0 °F 95% 29.77 in 7.0 mi SW 9.2 mph - N/A   Clear
7:08 PM 29.3 °F 20.2 °F 27.5 °F 93% 29.77 in 10.0 mi SW 10.4 mph - N/A   Mostly Cloudy
7:29 PM 30.2 °F 20.2 °F 27.7 °F 90% 29.78 in 10.0 mi WSW 12.7 mph - N/A   Overcast
7:49 PM 31.8 °F 22.3 °F 28.9 °F 89% 29.78 in 10.0 mi WSW 12.7 mph 17.3 mph N/A   Overcast
8:09 PM 31.8 °F 21.8 °F 28.4 °F 87% 29.79 in 10.0 mi WSW 13.8 mph 21.9 mph N/A   Mostly Cloudy
8:28 PM 29.3 °F 19.6 °F 26.4 °F 89% 29.80 in 10.0 mi WSW 11.5 mph - N/A   Clear
8:48 PM 29.3 °F 19.1 °F 26.6 °F 90% 29.82 in 10.0 mi WSW 12.7 mph - N/A   Clear
9:09 PM 28.0 °F 18.6 °F 25.9 °F 92% 29.83 in 10.0 mi WSW 10.4 mph - N/A   Clear
9:27 PM 26.6 °F 15.2 °F 24.8 °F 93% 29.83 in 10.0 mi WSW 13.8 mph - N/A   Clear
9:48 PM 28.4 °F 18.5 °F 26.4 °F 92% 29.84 in 10.0 mi West 11.5 mph - N/A   Clear
10:08 PM 29.3 °F 18.2 °F 27.1 °F 92% 29.85 in 10.0 mi West 15.0 mph - N/A   Clear
10:29 PM 29.3 °F 19.1 °F 27.1 °F 92% 29.86 in 10.0 mi WSW 12.7 mph - N/A   Clear
10:48 PM 29.3 °F 19.6 °F 26.8 °F 90% 29.88 in 10.0 mi WSW 11.5 mph - N/A   Clear
11:49 PM 29.3 °F 20.8 °F 26.6 °F 90% 29.90 in 10.0 mi West 9.2 mph - N/A   Scattered Clouds